Location: �quirre
(50.4736°N, 2.2351°E)
Time: 05:13:10
(UTC+00:00)

Cosmos 1758 - Pass Details

Date: 07 August 2020
Orbit: 540 x 562 km, 82.5° (Epoch: 23 September)

Event Time Altitude Azimuth Distance (km) Brightness Sun altitude
Exits shadow 03:12:13 13° 203° (SSW) 1,661 5.2 -10.7°
Maximum altitude 03:15:46 60° 283° (WNW) 637 3.4 -10.3°
Drops below altitude 10° 03:19:47 10° 4° (N) 1,839 6.7 -9.8°
Sets 03:21:59 0° 8° (N) 2,734 7.7 -9.5°
